Location: Newark
(54.6833°N, 25.2833°E)
Time: 07:54:44
(UTC+00:00)

Altair - Pass Details

Date: 12 November 2019
Orbit: 1502 x 1682 km, 47.2° (Epoch: 08 December)

Event Time Altitude Azimuth Distance (km) Brightness Sun altitude
Rises 02:54:01 0° 212° (SSW) 4,626 - -24.2°
Exits shadow 02:55:48 - 207° (SSW) 4,104 9.5 -23.9°
Reaches altitude 10° 02:57:26 10° 202° (SSW) 3,647 9.2 -23.7°
Maximum altitude 03:05:06 31° 145° (SE) 2,396 8.8 -22.6°
Drops below altitude 10° 03:12:54 10° 87° (E) 3,716 10.7 -21.5°
Sets 03:16:24 0° 78° (ENE) 4,725 11.5 -21.0°
